Location: Detroit
(42.3310°N, 83.0460°W)
Time: 20:32:44
(UTC-04:00)

A-11 Canister half - Pass Details

Date: 07 February 2023
Orbit: 1526 x 1682 km, 47.3° (Epoch: 29 March)

Event Time Altitude Azimuth Distance (km) Brightness Sun altitude
Rises 04:16:20 0° 215° (SW) 4,691 - -37.7°
Reaches altitude 10° 04:19:31 10° 210° (SSW) 3,699 - -37.2°
Exits shadow 04:26:16 43° 172° (S) 2,039 9.5 -35.9°
Maximum altitude 04:28:17 49° 139° (SE) 1,900 9.5 -35.6°
Drops below altitude 10° 04:37:05 10° 69° (ENE) 3,708 11.8 -34.0°
Sets 04:40:16 0° 64° (ENE) 4,704 12.5 -33.4°
